Simultaneous Nadir Overpasses (SNOs) Predictions

Prediction of SNOs between LANDSAT-8 and METOP-B Satellite Orbit:

Table of predicted SNOs for the next 14.0 days since TLE Epoch: 3/1/2025
Index Date (LANDSAT-8) Time (LANDSAT-8) Lat,Lon (LANDSAT-8) SZA (LANDSAT-8 ) Date (METOP-B) Time (METOP-B) Lat,Lon (METOP-B) SZA (METOP-B ) Distance(km) Time Diff (sec)
1 03/01/2025 07:43:22 81.45, 109.54 91.06 03/01/2025 07:42:51 81.44, 109.38 91.03 2.78 31
2 03/01/2025 08:32:49 -81.45, -82.89 88.96 03/01/2025 08:33:31 -81.44, -82.91 88.95 0.38 42
3 03/04/2025 03:17:38 81.44, 175.85 89.99 03/04/2025 03:17:22 81.44, 175.73 89.97 2.02 16
4 03/04/2025 04:07:05 -81.44, -16.55 90.03 03/04/2025 04:08:02 -81.44, -16.55 90.01 0.41 57
5 03/06/2025 22:02:33 -81.31, 72.11 91.42 03/06/2025 22:01:19 -81.41, 71.89 91.39 11.36 74
6 03/06/2025 22:51:52 81.45,-117.52 88.95 03/06/2025 22:51:52 81.44,-117.68 88.92 2.84 0
7 03/06/2025 23:41:19 -81.45, 50.10 91.07 03/06/2025 23:42:32 -81.45, 50.04 91.05 1.06 73
8 03/09/2025 17:36:39 -81.44, 140.99 92.16 03/09/2025 17:35:41 -81.44, 141.10 92.17 1.86 58
9 03/09/2025 18:26:05 81.44, -51.36 87.83 03/09/2025 18:26:21 81.44, -51.26 87.85 1.74 16
10 03/12/2025 13:10:51 -81.44,-152.51 93.24 03/12/2025 13:10:11 -81.44,-152.64 93.26 2.15 40



Historial Predications of SNOs between LANDSAT-8 and METOP-B
